Voltar ao catálogo

STARLINK-2494

AtivoComunicaçõesVLEO
NORAD 48487·PAYLOAD·🇺🇸 United States

Lançado May 9, 2021 de Cape Canaveral Space Force Station

Loading…

Próximas Passagens (próximas 24 horas)

TLE

AtualizadoSource: CelesTrak SupGP

Época: Sep 14, 2026, 21:13 UTC

1 48487C 21040BM  26257.88451389  .00037683  00000+0  12116-2 0  2572
2 48487  53.1605  33.5690 0001164  79.4302  78.9613 15.31687887    15

Acompanhe STARLINK-2494 em tempo real com AllMySat

Download on the App Store